Find OneWeb SL0569

NORAD ID: 55148 Int'l Des: 2023-004 Owner: ONEWEBN Country: UK Constellation: oneweb operational
LEOCIRCULARPOLARONEWEB_TYPE

当前视图

正在加载3D地球...

About OneWeb SL0569

OneWeb SL0569 (NORAD 55148) is a oneweb constellation satellite launched Jan 10, 2023 by ONEWEBN of UK. It operates in LEO, CIRCULAR, POLAR, ONEWEB_TYPE orbit with a mass of 148.00 kg.

关于 OneWeb SL0569

正在加载描述...

即将过境

Passes for default location (London). Set your location on the main map for personalized predictions.

高度历史

Loading altitude history...

两行轨道根数

1 55148U 23004J 26171.43611106 .00000155 00000-0 38921-3 0 9998
2 55148 87.8963 319.5732 0001927 124.1039 236.0273 13.13470546170606
Epoch: Jun 20, 2026 • Age: 43 hours

当前状态

高度 1215.8 km
速度 7.25 km/s
星下点 47.86°N, 148.69°E
发射日期 Jan 10, 2023
运行时间 3.4 years
类型 internet

技术详情

分类 Payload
质量 148.00 kg
干质量 140.00 kg
总质量 148.00 kg
长度 1.30 m
直径 1.00 m
跨度 5.00 m
形状 Trapezoid+2 pan
制造商 ONEWUS
平台类型 ARROW
阶段状态 In Orbit
所有者/国家 ONEWEBN/UK

Most Searched